TimeMST,TemperatureF,Dew PointF,Humidity,Sea Level PressureIn,VisibilityMPH,Wind Direction,Wind SpeedMPH,Gust SpeedMPH,PrecipitationIn,Events,Conditions,WindDirDegrees,DateUTC
12:58 AM,87.6,52.2,30,29.70,10.0,South,5.8,-,N/A,,Clear,180,2013-07-04 07:58:00
1:58 AM,86.4,56.8,36,29.72,10.0,South,15.0,23.0,N/A,,Clear,190,2013-07-04 08:58:00
2:58 AM,84.4,57.4,40,29.72,10.0,South,13.8,-,N/A,,Scattered Clouds,180,2013-07-04 09:58:00
3:58 AM,83.7,57.7,41,29.72,10.0,South,9.2,-,N/A,,Mostly Cloudy,180,2013-07-04 10:58:00
4:58 AM,82.4,58.3,44,29.75,10.0,South,10.4,-,N/A,,Clear,170,2013-07-04 11:58:00
5:58 AM,81.9,58.3,45,29.75,10.0,SSE,9.2,-,N/A,,Clear,150,2013-07-04 12:58:00
6:58 AM,83.7,57.9,41,29.77,10.0,East,10.4,-,N/A,,Clear,100,2013-07-04 13:58:00
7:58 AM,86.4,57.7,38,29.78,10.0,Variable,4.6,-,N/A,,Clear,0,2013-07-04 14:58:00
8:58 AM,88.9,57.0,34,29.78,10.0,SSW,6.9,-,N/A,,Clear,210,2013-07-04 15:58:00
9:58 AM,91.4,55.8,30,29.76,10.0,NNE,6.9,-,N/A,,Clear,20,2013-07-04 16:58:00
10:58 AM,93.9,53.6,25,29.75,10.0,WSW,3.5,-,N/A,,Clear,250,2013-07-04 17:58:00
11:58 AM,95.9,53.4,24,29.73,10.0,Variable,3.5,-,N/A,,Clear,0,2013-07-04 18:58:00
12:58 PM,98.2,51.1,20,29.70,10.0,NW,16.1,21.9,N/A,,Partly Cloudy,310,2013-07-04 19:58:00
1:58 PM,100.6,50.5,19,29.68,10.0,NNW,12.7,-,N/A,,Clear,340,2013-07-04 20:58:00
2:09 PM,100.4,50.0,18,29.83,10.0,NW,13.8,-,N/A,,Clear,310,2013-07-04 21:09:00
2:58 PM,101.7,50.0,18,29.65,10.0,WNW,5.8,18.4,N/A,,Clear,300,2013-07-04 21:58:00
3:36 PM,102.2,50.0,17,29.79,10.0,West,17.3,-,N/A,,Clear,280,2013-07-04 22:36:00
3:51 PM,102.2,50.0,17,29.78,10.0,West,15.0,20.7,N/A,,Clear,270,2013-07-04 22:51:00
3:58 PM,102.7,49.1,16,29.62,10.0,NNW,18.4,25.3,N/A,,Clear,340,2013-07-04 22:58:00
3:59 PM,102.2,50.0,17,29.78,10.0,NNW,18.4,25.3,N/A,,Clear,340,2013-07-04 22:59:00
4:31 PM,102.2,48.2,16,29.77,10.0,WNW,15.0,21.9,N/A,,Clear,290,2013-07-04 23:31:00
4:35 PM,104.0,48.2,15,29.77,10.0,NNW,17.3,21.9,N/A,,Clear,330,2013-07-04 23:35:00
4:36 PM,104.0,48.2,15,29.77,10.0,NNW,15.0,21.9,N/A,,Clear,330,2013-07-04 23:36:00
4:40 PM,102.2,48.2,16,29.77,10.0,WNW,12.7,21.9,N/A,,Clear,290,2013-07-04 23:40:00
4:41 PM,102.2,48.2,16,29.77,10.0,West,12.7,21.9,N/A,,Clear,280,2013-07-04 23:41:00
4:58 PM,102.4,48.6,16,29.61,10.0,NW,17.3,21.9,N/A,,Clear,310,2013-07-04 23:58:00
5:51 PM,102.2,48.2,16,29.76,10.0,WNW,13.8,-,N/A,,Clear,290,2013-07-05 00:51:00
5:58 PM,102.6,48.9,16,29.60,10.0,NW,13.8,-,N/A,,Clear,320,2013-07-05 00:58:00
5:59 PM,102.2,48.2,16,29.76,10.0,NW,13.8,-,N/A,,Clear,320,2013-07-05 00:59:00
6:58 PM,100.4,50.4,19,29.61,10.0,NW,8.1,-,N/A,,Clear,320,2013-07-05 01:58:00
7:58 PM,98.1,51.3,21,29.63,10.0,NW,8.1,-,N/A,,Clear,320,2013-07-05 02:58:00
8:58 PM,96.6,50.0,21,29.65,10.0,West,10.4,-,N/A,,Clear,270,2013-07-05 03:58:00
9:58 PM,94.5,53.6,25,29.70,10.0,West,11.5,-,N/A,,Clear,260,2013-07-05 04:58:00
10:58 PM,89.8,55.0,31,29.72,10.0,SE,11.5,-,N/A,,Scattered Clouds,140,2013-07-05 05:58:00
11:58 PM,88.9,54.9,31,29.72,10.0,ESE,10.4,-,N/A,,Clear,120,2013-07-05 06:58:00